Wind_Speed
10 10 11 11 11 12 13 13 13 14 14 15 16 15 15 16 16 16 16 17 17 18 19 19 20 21 21 21 21 20 21 21 21 21 21 21 21 22 23 23 22 22 21
11 12 12 13 13 13 14 15 16 16 16 16 16 16 16 17 17 18 18 18 19 20 20 21 21 22 21 21 21 21 22 22 22 22 22 22 22 23 23 24 23 23 21
13 13 13 14 14 15 17 17 17 17 18 18 17 17 18 18 19 19 20 20 21 21 21 21 21 22 22 22 22 22 23 23 23 23 23 23 23 24 24 24 24 23 22
14 14 14 14 15 16 17 19 19 19 20 20 19 19 20 20 21 21 22 22 22 22 22 22 22 23 23 24 24 23 24 24 24 23 23 23 23 23 23 24 24 25 23
16 17 17 17 17 18 19 20 21 21 21 22 22 22 22 22 23 23 24 24 24 24 24 24 24 24 24 24 24 24 24 24 24 24 24 24 24 24 24 24 24 24 24
19 19 20 20 20 20 21 22 22 22 22 22 23 24 24 24 24 25 25 25 26 26 26 26 26 26 25 25 24 25 25 26 25 24 24 25 25 25 26 25 25 25 25
21 21 21 21 21 21 22 23 24 24 23 23 24 24 25 25 25 26 27 27 27 27 27 28 28 28 27 26 26 26 26 26 25 25 25 25 25 25 25 26 26 26 26
22 22 24 24 23 23 23 24 24 25 25 24 24 25 26 27 27 27 28 28 28 28 28 29 28 28 28 27 28 27 26 26 25 25 25 25 25 25 26 26 27 27 27
22 23 25 25 25 24 24 25 25 25 25 25 26 26 27 28 28 28 28 29 29 29 29 29 30 29 29 28 28 27 27 26 26 26 26 26 25 26 26 27 27 28 27
23 24 25 26 26 25 25 26 26 25 26 27 27 28 29 28 28 29 29 29 30 30 30 29 29 29 28 27 28 28 27 27 27 27 27 26 26 27 27 27 27 27 25
26 26 26 26 26 27 27 27 27 27 27 27 28 28 29 29 29 29 30 30 30 30 29 29 29 29 28 28 27 27 27 27 27 27 27 27 27 27 27 28 27 26 25
27 27 28 29 27 27 28 28 27 27 27 28 28 29 30 30 29 29 29 29 29 29 29 29 30 30 29 28 28 28 28 28 27 27 27 27 27 27 27 27 27 26 25
28 29 29 30 29 28 28 28 28 28 28 28 28 29 29 29 29 30 30 30 30 30 30 30 30 29 28 28 28 27 28 28 28 28 28 28 27 27 28 27 26 26 25
29 30 30 29 28 28 28 28 28 29 29 28 28 29 30 30 30 30 30 30 30 29 29 29 29 29 29 29 28 28 28 28 27 28 28 28 28 28 27 26 26 25 25
29 30 29 29 28 29 29 29 30 30 30 30 30 30 31 30 30 30 29 29 28 28 28 29 29 30 29 29 29 29 29 29 28 28 29 28 27 27 27 27 26 26 26
29 29 29 29 29 30 29 30 29 30 30 30 30 31 31 30 30 30 29 29 29 29 29 29 29 29 28 28 29 29 29 28 28 28 29 28 28 27 27 27 26 26 26
30 31 31 30 31 30 30 30 29 29 29 30 30 30 29 29 29 29 29 29 29 29 29 29 28 28 28 28 28 28 27 27 27 27 27 27 27 26 26 26 26 26 25
31 32 31 31 31 31 30 30 29 29 29 29 29 29 29 28 29 29 29 29 29 29 29 28 28 28 28 27 27 26 26 25 26 25 25 25 25 25 25 25 25 25 24
32 32 31 30 30 30 31 30 30 29 29 29 29 28 28 28 29 29 29 29 29 28 28 28 28 27 27 27 26 26 25 25 25 24 23 23 23 24 23 23 23 24 24
32 32 32 30 30 30 30 30 30 30 29 28 28 28 28 28 28 29 29 29 28 27 27 27 27 27 26 26 26 25 25 25 24 24 23 23 23 23 22 22 23 23 23
32 31 30 29 30 31 31 30 30 29 29 29 28 28 28 28 28 28 28 28 28 27 27 27 27 26 25 25 25 25 25 25 24 24 24 24 23 23 22 22 23 23 24
30 30 29 30 30 30 29 29 28 28 28 28 28 28 28 28 28 28 28 28 27 27 26 26 26 25 25 25 24 24 24 23 24 24 24 23 23 22 22 22 23 23 24
30 30 30 29 29 28 28 28 28 28 27 27 27 27 28 28 28 28 28 27 27 26 26 26 25 25 25 24 24 24 23 24 24 23 23 22 22 22 22 22 23 23 23
29 29 29 29 28 29 29 29 28 28 27 27 27 27 28 27 28 28 27 27 26 26 26 26 25 24 24 24 24 24 23 23 23 23 23 22 22 22 23 22 22 22 23
28 27 27 28 27 28 28 28 28 28 29 28 28 28 28 28 28 27 27 26 26 26 26 25 24 24 24 24 24 23 23 23 23 23 23 23 23 23 22 22 22 23 24
27 27 27 27 27 26 26 26 26 27 28 28 27 27 27 27 27 26 26 26 26 26 25 24 24 24 23 23 23 22 22 22 23 23 23 23 23 23 23 23 23 24 23
Wind_Direction
280 280 282 283 284 289 291 292 293 296 298 298 299 300 299 298 299 299 299 298 299 299 298 296 296 295 294 292 292 291 289 288 286 286 286 287 285 282 280 279 278 276 274
281 281 281 283 285 288 292 293 293 295 298 297 297 298 297 296 296 296 296 297 299 299 299 297 296 295 293 292 291 290 290 288 286 285 285 287 286 284 281 280 279 276 276
280 285 288 288 288 290 293 293 294 293 294 293 293 293 293 293 294 295 295 296 298 299 299 298 297 296 294 292 291 290 289 288 286 285 286 287 286 285 282 281 280 277 277
286 289 293 293 290 291 293 294 293 292 290 288 288 288 289 290 291 293 292 294 295 297 297 297 297 296 295 292 291 291 290 289 288 287 286 286 286 287 285 283 282 277 275
288 290 292 293 292 290 292 294 294 293 290 288 288 288 286 287 288 290 290 291 292 294 295 295 296 295 294 293 292 291 290 289 289 288 285 284 285 285 284 284 283 281 278
289 291 291 292 291 291 292 293 293 293 291 291 290 289 287 287 288 289 290 291 291 291 292 293 292 292 292 291 291 291 289 289 289 287 285 283 283 283 281 280 282 282 279
287 288 290 292 293 294 293 292 292 291 290 291 292 290 287 287 288 289 290 290 290 291 291 291 292 293 293 291 291 292 291 290 288 286 285 285 285 284 281 281 281 281 279
287 288 291 293 292 295 295 294 293 293 291 290 291 290 289 288 288 288 288 289 290 292 292 294 293 294 293 292 291 292 292 289 286 285 285 285 285 284 283 282 282 281 281
287 288 290 291 292 293 294 295 295 294 292 291 291 291 292 291 289 289 289 290 290 291 291 292 292 291 292 292 291 290 289 287 285 285 287 285 283 283 283 283 282 282 280
285 287 288 289 291 292 293 295 294 292 291 290 291 291 292 293 292 290 290 289 290 290 291 293 292 291 291 292 291 289 287 287 285 284 284 284 284 283 282 283 284 282 279
282 286 287 289 291 292 292 294 293 290 290 290 291 293 294 295 295 294 293 292 291 291 291 292 292 290 290 290 289 290 289 286 284 284 284 284 284 284 284 284 283 282 279
284 285 286 289 291 291 291 292 291 291 293 292 292 294 295 296 296 296 295 294 294 293 293 292 291 289 288 288 288 288 288 287 284 283 283 284 284 283 285 285 281 279 278
282 283 284 288 288 288 288 289 289 291 293 293 293 294 295 296 294 296 296 295 295 294 293 291 290 289 287 288 288 287 287 286 284 282 282 283 282 282 284 283 282 280 276
282 283 285 286 287 288 288 289 290 291 292 292 293 293 294 295 295 295 295 295 295 294 293 292 290 290 289 288 287 287 287 286 285 283 283 283 281 279 280 280 279 278 275
281 282 284 286 288 290 290 290 290 291 291 291 292 292 293 294 294 294 294 295 295 295 294 292 291 290 290 290 288 288 287 286 286 285 283 282 281 280 278 277 278 278 275
281 281 282 284 285 288 290 291 291 291 291 292 293 293 294 294 294 294 295 294 294 294 294 294 293 291 290 289 289 289 288 287 285 284 283 281 280 279 278 277 276 275 275
282 282 283 284 285 287 289 290 290 290 291 292 293 293 294 293 294 295 295 294 294 294 293 294 293 292 292 291 291 290 289 286 284 284 283 281 280 279 278 277 275 274 274
281 282 282 283 284 285 287 288 290 290 291 291 292 292 292 293 294 296 296 295 296 296 295 294 293 292 292 292 290 289 288 287 286 287 286 283 282 282 279 277 274 272 273
282 283 282 281 283 285 286 286 287 288 288 289 290 291 292 293 294 295 296 296 296 296 295 295 294 293 293 292 291 288 287 288 287 286 285 285 284 283 281 278 275 273 274
281 284 284 282 283 285 286 286 287 287 286 287 288 289 290 292 293 295 296 297 296 295 296 295 295 294 293 292 290 288 287 288 287 286 285 284 283 282 280 278 277 276 275
281 283 282 283 286 287 286 286 286 286 285 285 287 288 290 291 293 294 295 295 295 295 295 295 294 294 292 291 290 289 289 287 287 286 286 284 281 281 279 276 275 276 276
282 283 284 286 287 286 285 285 285 285 286 285 287 288 290 291 292 293 294 295 296 296 296 295 294 292 291 291 291 290 289 288 287 287 286 286 284 283 281 279 277 276 275
283 284 284 286 287 287 286 286 286 287 287 287 288 289 290 291 291 292 293 294 295 295 296 295 294 292 292 292 292 291 289 288 288 287 287 286 285 283 282 280 278 276 276
283 285 285 286 286 286 287 286 286 287 286 286 287 288 290 291 291 291 291 292 293 294 296 296 294 292 291 291 290 289 290 289 288 288 287 285 283 282 283 283 281 279 277
285 286 287 286 286 286 286 285 285 286 286 286 286 288 290 291 292 291 290 290 291 293 294 294 292 290 290 290 290 289 290 289 288 288 288 286 284 283 283 284 283 280 278
285 286 287 287 286 285 286 286 286 286 285 285 286 287 288 290 290 290 288 289 290 291 291 290 289 289 290 290 291 290 290 289 289 288 289 287 284 283 283 283 284 282 279
Height
5876 5876 5875 5874 5874 5873 5872 5871 5870 5869 5868 5867 5865 5864 5862 5861 5860 5858 5857 5855 5854 5852 5851 5849 5847 5846 5844 5842 5840 5839 5837 5836 5835 5834 5832 5831 5830 5829 5827 5826 5825 5824 5824
5873 5873 5872 5871 5871 5870 5869 5868 5867 5866 5864 5863 5861 5860 5859 5857 5856 5854 5853 5851 5850 5848 5846 5844 5842 5840 5838 5837 5835 5834 5832 5830 5829 5828 5826 5825 5824 5823 5822 5820 5819 5818 5818
5870 5869 5869 5867 5867 5866 5865 5864 5863 5862 5860 5859 5857 5856 5854 5853 5851 5850 5848 5847 5845 5843 5841 5839 5837 5835 5833 5831 5829 5828 5826 5825 5823 5822 5821 5819 5818 5817 5815 5814 5813 5812 5811
5866 5866 5865 5864 5862 5861 5861 5859 5858 5857 5856 5854 5852 5851 5849 5848 5846 5845 5843 5841 5840 5838 5836 5834 5832 5830 5828 5825 5824 5822 5820 5819 5817 5816 5815 5813 5812 5810 5809 5808 5807 5806 5805
5862 5862 5860 5859 5858 5857 5856 5854 5853 5851 5850 5848 5847 5845 5844 5842 5841 5839 5837 5836 5834 5832 5830 5828 5826 5824 5821 5819 5817 5816 5814 5812 5811 5809 5808 5807 5805 5804 5803 5801 5800 5799 5798
5857 5856 5855 5854 5853 5851 5850 5849 5847 5845 5843 5842 5841 5839 5838 5836 5835 5833 5831 5829 5828 5826 5824 5821 5819 5817 5815 5813 5811 5809 5807 5806 5804 5803 5802 5800 5799 5797 5796 5795 5793 5792 5792
5852 5850 5849 5847 5846 5845 5844 5842 5840 5838 5837 5836 5834 5832 5831 5830 5828 5826 5825 5823 5821 5819 5817 5815 5812 5810 5808 5806 5804 5802 5800 5799 5798 5796 5795 5794 5792 5791 5789 5788 5787 5786 5784
5846 5845 5843 5842 5841 5839 5837 5836 5834 5832 5830 5829 5827 5826 5824 5823 5821 5819 5817 5815 5813 5811 5809 5807 5805 5803 5801 5799 5797 5795 5794 5792 5791 5789 5788 5787 5785 5783 5782 5781 5779 5778 5777
5840 5839 5837 5836 5834 5832 5831 5829 5827 5825 5823 5821 5820 5818 5817 5815 5813 5811 5809 5807 5806 5804 5802 5799 5797 5795 5793 5791 5789 5788 5786 5785 5783 5782 5780 5779 5778 5776 5775 5773 5772 5770 5769
5834 5832 5830 5829 5827 5825 5823 5822 5820 5818 5816 5814 5812 5811 5809 5807 5804 5803 5801 5799 5798 5796 5793 5791 5788 5786 5784 5782 5781 5779 5778 5777 5775 5774 5772 5771 5770 5768 5767 5766 5764 5762 5761
5826 5824 5823 5821 5819 5817 5815 5814 5812 5810 5809 5806 5804 5802 5801 5799 5796 5794 5792 5790 5789 5787 5785 5782 5780 5778 5776 5774 5772 5771 5769 5768 5767 5766 5764 5763 5762 5760 5759 5757 5756 5755 5754
5818 5817 5815 5813 5811 5809 5808 5807 5805 5803 5801 5799 5796 5794 5793 5790 5788 5786 5784 5782 5779 5777 5776 5773 5772 5769 5768 5766 5764 5763 5761 5760 5758 5757 5756 5755 5754 5752 5751 5749 5748 5747 5746
5810 5809 5808 5806 5804 5802 5800 5798 5797 5795 5792 5790 5789 5787 5785 5782 5780 5777 5775 5773 5771 5768 5766 5764 5762 5760 5758 5757 5755 5754 5752 5751 5749 5748 5747 5746 5745 5744 5742 5741 5739 5739 5738
5802 5800 5799 5797 5796 5793 5792 5790 5788 5786 5784 5782 5780 5778 5776 5774 5771 5769 5767 5764 5762 5760 5757 5755 5753 5751 5749 5748 5746 5745 5743 5742 5740 5739 5738 5737 5735 5735 5734 5732 5732 5731 5730
5793 5792 5790 5789 5787 5785 5783 5781 5780 5778 5776 5774 5772 5769 5767 5765 5763 5760 5758 5756 5753 5751 5749 5747 5745 5743 5741 5739 5737 5735 5734 5732 5731 5730 5728 5727 5726 5726 5725 5724 5723 5723 5722
5784 5783 5781 5780 5778 5777 5775 5773 5771 5769 5767 5765 5763 5761 5758 5756 5754 5752 5749 5747 5745 5742 5740 5738 5736 5734 5732 5730 5728 5726 5724 5722 5721 5720 5719 5718 5717 5716 5716 5715 5715 5714 5714
5775 5774 5772 5771 5769 5767 5766 5764 5762 5760 5758 5756 5754 5752 5750 5747 5745 5743 5741 5738 5736 5734 5731 5729 5727 5725 5723 5721 5719 5717 5715 5713 5712 5711 5709 5708 5708 5707 5707 5706 5706 5706 5706
5766 5764 5763 5761 5760 5758 5757 5755 5753 5751 5749 5747 5745 5743 5741 5739 5737 5735 5732 5730 5728 5725 5722 5720 5718 5715 5713 5711 5710 5708 5707 5705 5703 5702 5701 5700 5699 5698 5698 5698 5697 5698 5698
5756 5755 5753 5752 5750 5748 5747 5746 5744 5742 5741 5739 5737 5735 5733 5731 5729 5726 5724 5722 5719 5716 5714 5712 5709 5707 5705 5703 5701 5700 5698 5697 5696 5694 5693 5692 5691 5690 5690 5689 5689 5690 5690
5747 5745 5743 5742 5741 5739 5738 5736 5735 5733 5732 5730 5728 5727 5724 5722 5720 5718 5715 5713 5710 5708 5706 5703 5701 5699 5697 5695 5693 5691 5690 5689 5687 5686 5685 5684 5683 5683 5682 5682 5682 5682 5682
5738 5736 5735 5733 5731 5730 5728 5727 5726 5724 5723 5721 5720 5718 5716 5714 5712 5709 5707 5704 5702 5700 5697 5695 5693 5691 5689 5687 5685 5683 5682 5681 5680 5678 5677 5677 5676 5675 5675 5675 5675 5675 5674
5728 5727 5726 5724 5722 5720 5719 5717 5716 5715 5713 5712 5711 5709 5707 5705 5703 5701 5698 5696 5693 5691 5689 5687 5684 5682 5680 5679 5677 5675 5674 5672 5671 5670 5670 5669 5668 5668 5667 5667 5667 5667 5667
5719 5718 5717 5715 5713 5712 5710 5709 5707 5706 5704 5703 5702 5700 5698 5696 5694 5692 5690 5688 5685 5683 5681 5679 5676 5674 5673 5671 5669 5668 5666 5665 5664 5663 5662 5662 5661 5661 5660 5660 5660 5659 5659
5710 5709 5707 5706 5704 5702 5701 5699 5698 5697 5695 5694 5693 5691 5689 5687 5685 5683 5681 5679 5677 5675 5673 5670 5668 5667 5665 5663 5662 5660 5659 5658 5657 5656 5655 5654 5654 5653 5653 5652 5652 5651 5651
5701 5699 5698 5696 5695 5693 5692 5690 5689 5688 5686 5685 5683 5682 5680 5678 5676 5675 5673 5671 5669 5667 5665 5662 5661 5659 5658 5656 5654 5653 5652 5651 5650 5649 5648 5647 5646 5645 5645 5645 5644 5644 5643
5692 5690 5689 5687 5686 5684 5683 5681 5680 5678 5677 5675 5674 5673 5672 5670 5668 5666 5664 5662 5660 5659 5657 5655 5653 5652 5650 5649 5647 5646 5645 5644 5643 5641 5640 5639 5638 5638 5637 5637 5636 5635 5635